Year,Month,Day,Hour,Minute,Value (Times are PST for temperature in C)
2017,05,27,10,12,19.70
2017,05,27,10,13,19.70
2017,05,27,10,14,19.60
2017,05,27,10,15,19.50
2017,05,27,10,16,19.50
2017,05,27,10,17,19.30
2017,05,27,10,18,19.20
2017,05,27,10,19,19.20
2017,05,27,10,20,19.20
2017,05,27,10,21,19.40
2017,05,27,10,22,19.50
2017,05,27,10,23,19.60
2017,05,27,10,24,19.70
2017,05,27,10,25,19.70
2017,05,27,10,26,19.80
2017,05,27,10,27,19.90
2017,05,27,10,28,20.00
2017,05,27,10,29,20.10
2017,05,27,10,30,20.20
2017,05,27,10,31,20.20
2017,05,27,10,32,20.20
2017,05,27,10,33,20.30
2017,05,27,10,34,20.30
2017,05,27,10,35,20.20
2017,05,27,10,36,20.20
2017,05,27,10,37,20.20
2017,05,27,10,38,20.30
2017,05,27,10,39,20.30
2017,05,27,10,40,20.40
2017,05,27,10,41,20.40
2017,05,27,10,42,20.50
2017,05,27,10,43,20.50
2017,05,27,10,44,20.50
2017,05,27,10,45,20.60
2017,05,27,10,46,20.60
2017,05,27,10,47,20.70
2017,05,27,10,48,20.80
2017,05,27,10,49,20.90
2017,05,27,10,50,20.90
2017,05,27,10,51,20.80
2017,05,27,10,52,20.80
2017,05,27,10,53,20.70
2017,05,27,10,54,20.70
2017,05,27,10,55,20.60
2017,05,27,10,56,20.60
2017,05,27,10,57,20.70
2017,05,27,10,58,20.70
2017,05,27,10,59,20.60
2017,05,27,11,00,20.60
2017,05,27,11,01,20.50
2017,05,27,11,02,20.50
2017,05,27,11,03,20.50
2017,05,27,11,04,20.60
2017,05,27,11,05,20.60
2017,05,27,11,06,20.60
2017,05,27,11,07,20.60
2017,05,27,11,08,20.70
2017,05,27,11,09,20.80
2017,05,27,11,10,20.90
2017,05,27,11,11,21.00
2017,05,27,11,12,20.90
2017,05,27,11,13,20.90
2017,05,27,11,14,20.90
2017,05,27,11,15,21.00
2017,05,27,11,16,21.10
2017,05,27,11,17,21.20
2017,05,27,11,18,21.30
2017,05,27,11,19,21.40
2017,05,27,11,20,21.50
2017,05,27,11,21,21.60
2017,05,27,11,22,21.60
2017,05,27,11,23,21.70
2017,05,27,11,24,21.60
2017,05,27,11,25,21.50
2017,05,27,11,26,21.40
2017,05,27,11,27,21.40
2017,05,27,11,28,21.30
2017,05,27,11,29,21.30
2017,05,27,11,30,21.40
2017,05,27,11,31,21.40
2017,05,27,11,32,21.50
2017,05,27,11,33,21.60
2017,05,27,11,34,21.60
2017,05,27,11,35,21.70
2017,05,27,11,36,21.70
2017,05,27,11,37,21.80
2017,05,27,11,38,21.70
2017,05,27,11,39,21.80
2017,05,27,11,40,21.80
2017,05,27,11,41,21.70
2017,05,27,11,42,21.60
2017,05,27,11,43,21.70
2017,05,27,11,44,21.80
2017,05,27,11,45,21.90
2017,05,27,11,46,22.00
2017,05,27,11,47,22.10
2017,05,27,11,48,22.10
2017,05,27,11,49,22.00
2017,05,27,11,50,21.80
2017,05,27,11,51,21.70
2017,05,27,11,52,21.70
2017,05,27,11,53,21.80
2017,05,27,11,54,22.00
2017,05,27,11,55,22.20
2017,05,27,11,56,22.10
2017,05,27,11,57,21.90
2017,05,27,11,58,21.80
2017,05,27,11,59,21.90
2017,05,27,12,00,22.00
2017,05,27,12,01,22.00
2017,05,27,12,02,22.00
2017,05,27,12,03,21.90
2017,05,27,12,04,22.00
2017,05,27,12,05,21.90
2017,05,27,12,06,21.70
2017,05,27,12,07,21.60
2017,05,27,12,08,21.40
2017,05,27,12,09,21.20
2017,05,27,12,10,21.20
2017,05,27,12,11,21.10
2017,05,27,12,12,20.90
2017,05,27,12,13,20.90
2017,05,27,12,14,20.80
2017,05,27,12,15,20.70
2017,05,27,12,16,20.50
2017,05,27,12,17,20.30
2017,05,27,12,18,20.30
2017,05,27,12,19,20.40
2017,05,27,12,20,20.60
2017,05,27,12,21,20.70
2017,05,27,12,22,20.50
2017,05,27,12,23,20.40
2017,05,27,12,24,20.30
2017,05,27,12,25,20.40
2017,05,27,12,26,20.40
2017,05,27,12,27,20.50
2017,05,27,12,28,20.60
2017,05,27,12,29,20.60
2017,05,27,12,30,20.70
2017,05,27,12,31,20.80
2017,05,27,12,32,20.80
2017,05,27,12,33,20.70
2017,05,27,12,34,20.60
2017,05,27,12,35,20.60
2017,05,27,12,36,20.80
2017,05,27,12,37,20.90
2017,05,27,12,38,21.10
2017,05,27,12,39,21.20
2017,05,27,12,40,21.20
2017,05,27,12,41,21.10
2017,05,27,12,42,21.10
2017,05,27,12,43,21.10
2017,05,27,12,44,21.10
2017,05,27,12,45,21.10
2017,05,27,12,46,21.10
2017,05,27,12,47,21.10
2017,05,27,12,48,21.10
2017,05,27,12,49,21.00
2017,05,27,12,50,20.80
2017,05,27,12,51,20.70
2017,05,27,12,52,20.80
2017,05,27,12,53,20.90
2017,05,27,12,54,21.00
2017,05,27,12,55,21.00
2017,05,27,12,56,21.00
2017,05,27,12,57,21.10
2017,05,27,12,58,21.10
2017,05,27,12,59,21.10
2017,05,27,13,00,21.00
2017,05,27,13,01,20.90
2017,05,27,13,02,21.10
2017,05,27,13,03,21.20
2017,05,27,13,04,21.30
2017,05,27,13,05,21.30
2017,05,27,13,06,21.20
2017,05,27,13,07,21.20
2017,05,27,13,08,21.20
2017,05,27,13,09,21.30
2017,05,27,13,10,21.30
2017,05,27,13,11,21.40
2017,05,27,13,12,21.60
2017,05,27,13,13,21.70
2017,05,27,13,14,21.90
2017,05,27,13,15,22.00
2017,05,27,13,16,22.10
2017,05,27,13,17,22.20
2017,05,27,13,18,22.10
2017,05,27,13,19,22.00
2017,05,27,13,20,22.00
2017,05,27,13,21,21.90
2017,05,27,13,22,21.90
2017,05,27,13,23,22.00
2017,05,27,13,24,22.00
2017,05,27,13,25,22.10
2017,05,27,13,26,22.20
2017,05,27,13,27,22.20
2017,05,27,13,28,22.30
2017,05,27,13,29,22.40
2017,05,27,13,30,22.50
2017,05,27,13,31,22.60
2017,05,27,13,32,22.80
2017,05,27,13,33,22.70
2017,05,27,13,34,22.80
2017,05,27,13,35,22.70
2017,05,27,13,36,22.50
2017,05,27,13,37,22.40
2017,05,27,13,38,22.50
2017,05,27,13,39,22.50
2017,05,27,13,40,22.30
2017,05,27,13,41,22.40
2017,05,27,13,42,22.50
2017,05,27,13,43,22.60
2017,05,27,13,44,22.70
2017,05,27,13,45,22.80
2017,05,27,13,46,22.80
2017,05,27,13,47,22.80
2017,05,27,13,48,22.80
2017,05,27,13,49,22.90
2017,05,27,13,50,22.90
2017,05,27,13,51,22.90
2017,05,27,13,52,22.90
2017,05,27,13,53,23.10
2017,05,27,13,54,23.20
2017,05,27,13,55,23.30
2017,05,27,13,56,23.30
2017,05,27,13,57,23.40
2017,05,27,13,58,23.40
2017,05,27,13,59,23.40
2017,05,27,14,00,23.30
2017,05,27,14,01,23.30
2017,05,27,14,02,23.20
2017,05,27,14,03,23.20
2017,05,27,14,04,23.10
2017,05,27,14,05,23.00
2017,05,27,14,06,22.90
2017,05,27,14,07,22.90
2017,05,27,14,08,22.90
2017,05,27,14,09,22.90
2017,05,27,14,10,22.90
2017,05,27,14,11,22.90
2017,05,27,14,12,22.90
2017,05,27,14,13,22.80
2017,05,27,14,14,22.80
2017,05,27,14,15,22.80
2017,05,27,14,16,22.90
2017,05,27,14,17,22.90
2017,05,27,14,18,22.90
2017,05,27,14,19,22.90
2017,05,27,14,20,22.90
2017,05,27,14,21,23.00
2017,05,27,14,22,23.20
2017,05,27,14,23,23.30
2017,05,27,14,24,23.30
2017,05,27,14,25,23.30
2017,05,27,14,26,23.50
2017,05,27,14,27,23.60
2017,05,27,14,28,23.60
2017,05,27,14,29,23.60
2017,05,27,14,30,23.70
2017,05,27,14,31,23.80
2017,05,27,14,32,24.00
2017,05,27,14,33,24.20
2017,05,27,14,34,24.20
2017,05,27,14,35,24.10
2017,05,27,14,36,24.00
2017,05,27,14,37,23.90
2017,05,27,14,38,23.80
2017,05,27,14,39,23.70
2017,05,27,14,40,23.70
2017,05,27,14,41,23.70
2017,05,27,14,42,23.60
2017,05,27,14,43,23.70
2017,05,27,14,44,23.70
2017,05,27,14,45,23.90
2017,05,27,14,46,24.10
2017,05,27,14,47,24.10
2017,05,27,14,48,24.10
2017,05,27,14,49,24.10
2017,05,27,14,50,24.10
2017,05,27,14,51,24.10
2017,05,27,14,52,24.20
2017,05,27,14,53,24.30
2017,05,27,14,54,24.30
2017,05,27,14,55,24.20
2017,05,27,14,56,24.20
2017,05,27,14,57,24.30
2017,05,27,14,58,24.30
2017,05,27,14,59,24.30
2017,05,27,15,00,24.40
2017,05,27,15,01,24.40
2017,05,27,15,02,24.30
2017,05,27,15,03,24.10
2017,05,27,15,04,24.00
2017,05,27,15,05,24.00
2017,05,27,15,06,24.10
2017,05,27,15,07,24.10
2017,05,27,15,08,24.10
2017,05,27,15,09,24.00
2017,05,27,15,10,23.90
2017,05,27,15,11,24.10
2017,05,27,15,12,24.10
2017,05,27,15,13,24.20
2017,05,27,15,14,24.40
2017,05,27,15,15,24.40
2017,05,27,15,16,24.50
2017,05,27,15,17,24.40
2017,05,27,15,18,24.50
2017,05,27,15,19,24.50
2017,05,27,15,20,24.30
2017,05,27,15,21,24.20
2017,05,27,15,22,24.20
2017,05,27,15,23,24.10
2017,05,27,15,24,24.10
2017,05,27,15,25,24.20
2017,05,27,15,26,24.20
2017,05,27,15,27,24.20
2017,05,27,15,28,24.20
2017,05,27,15,29,24.20
2017,05,27,15,30,24.20
2017,05,27,15,31,24.20
2017,05,27,15,32,24.20
2017,05,27,15,33,24.20
2017,05,27,15,34,24.20
2017,05,27,15,35,24.20
2017,05,27,15,36,24.20
2017,05,27,15,37,24.20
2017,05,27,15,38,24.30
2017,05,27,15,39,24.30
2017,05,27,15,40,24.40
2017,05,27,15,41,24.50
2017,05,27,15,42,24.60
2017,05,27,15,43,24.60
2017,05,27,15,44,24.40
2017,05,27,15,45,24.30
2017,05,27,15,46,24.30
2017,05,27,15,47,24.30
2017,05,27,15,48,24.40
2017,05,27,15,49,24.50
2017,05,27,15,50,24.50
2017,05,27,15,51,24.60
2017,05,27,15,52,24.70
2017,05,27,15,53,24.70
2017,05,27,15,54,24.60
2017,05,27,15,55,24.70
2017,05,27,15,56,24.80
2017,05,27,15,57,24.80
2017,05,27,15,58,24.90
2017,05,27,15,59,24.90
2017,05,27,16,00,24.90
2017,05,27,16,01,25.00
2017,05,27,16,02,25.00
2017,05,27,16,03,25.20
2017,05,27,16,04,25.30
2017,05,27,16,05,25.40
2017,05,27,16,06,25.50
2017,05,27,16,07,25.60
2017,05,27,16,08,25.60
2017,05,27,16,09,25.50
2017,05,27,16,10,25.50
2017,05,27,16,11,25.60
2017,05,27,16,12,25.60
2017,05,27,16,13,25.60
2017,05,27,16,14,25.50
2017,05,27,16,15,25.30
2017,05,27,16,16,25.20
2017,05,27,16,17,25.00
2017,05,27,16,18,24.90
2017,05,27,16,19,24.90
2017,05,27,16,20,25.00
2017,05,27,16,21,25.10
2017,05,27,16,22,25.20
2017,05,27,16,23,25.40
2017,05,27,16,24,25.30
2017,05,27,16,25,25.20
2017,05,27,16,26,25.10
2017,05,27,16,27,25.00
2017,05,27,16,28,25.00
2017,05,27,16,29,25.10
2017,05,27,16,30,25.20
2017,05,27,16,31,25.40
2017,05,27,16,32,25.40
2017,05,27,16,33,25.40
2017,05,27,16,34,25.40
2017,05,27,16,35,25.40
2017,05,27,16,36,25.40
2017,05,27,16,37,25.50
2017,05,27,16,38,25.60
2017,05,27,16,39,25.60
2017,05,27,16,40,25.40
2017,05,27,16,41,25.30
2017,05,27,16,42,25.20
2017,05,27,16,43,25.30
2017,05,27,16,44,25.20
2017,05,27,16,45,25.20
2017,05,27,16,46,25.30
2017,05,27,16,47,25.40
2017,05,27,16,48,25.60
2017,05,27,16,49,25.70
2017,05,27,16,50,25.70
2017,05,27,16,51,25.70
2017,05,27,16,52,25.70
2017,05,27,16,53,25.60
2017,05,27,16,54,25.60
2017,05,27,16,55,25.70
2017,05,27,16,56,25.60
2017,05,27,16,57,25.50
2017,05,27,16,58,25.40
2017,05,27,16,59,25.30
2017,05,27,17,00,25.20
2017,05,27,17,01,25.20
2017,05,27,17,02,25.30
2017,05,27,17,03,25.30
2017,05,27,17,04,25.40
2017,05,27,17,05,25.40
2017,05,27,17,06,25.40
2017,05,27,17,07,25.50
2017,05,27,17,08,25.50
2017,05,27,17,09,25.50
2017,05,27,17,10,25.40
2017,05,27,17,11,25.40
2017,05,27,17,12,25.30
2017,05,27,17,13,25.30
2017,05,27,17,14,25.20
2017,05,27,17,15,25.30
2017,05,27,17,16,25.40
2017,05,27,17,17,25.40
2017,05,27,17,18,25.40
2017,05,27,17,19,25.40
2017,05,27,17,20,25.50
2017,05,27,17,21,25.50
2017,05,27,17,22,25.50
2017,05,27,17,23,25.40
2017,05,27,17,24,25.50
2017,05,27,17,25,25.50
2017,05,27,17,26,25.50
2017,05,27,17,27,25.50
2017,05,27,17,28,25.40
2017,05,27,17,29,25.40
2017,05,27,17,30,25.40
2017,05,27,17,31,25.40
2017,05,27,17,32,25.40
2017,05,27,17,33,25.40
2017,05,27,17,34,25.50
2017,05,27,17,35,25.60
2017,05,27,17,36,25.70
2017,05,27,17,37,25.70
2017,05,27,17,38,25.60
2017,05,27,17,39,25.40
2017,05,27,17,40,25.40
2017,05,27,17,41,25.30
2017,05,27,17,42,25.20
2017,05,27,17,43,25.10
2017,05,27,17,44,25.10
2017,05,27,17,45,25.10
2017,05,27,17,46,25.10
2017,05,27,17,47,25.20
2017,05,27,17,48,25.30
2017,05,27,17,49,25.40
2017,05,27,17,50,25.50
2017,05,27,17,51,25.50
2017,05,27,17,52,25.60
2017,05,27,17,53,25.70
2017,05,27,17,54,25.70
2017,05,27,17,55,25.80
2017,05,27,17,56,25.80
2017,05,27,17,57,25.70
2017,05,27,17,58,25.80
2017,05,27,17,59,25.70
2017,05,27,18,00,25.60
2017,05,27,18,01,25.60
2017,05,27,18,02,25.60
2017,05,27,18,03,25.60
2017,05,27,18,04,25.50
2017,05,27,18,05,25.40
2017,05,27,18,06,25.30
2017,05,27,18,07,25.30
2017,05,27,18,08,25.30
2017,05,27,18,09,25.30
2017,05,27,18,10,25.30
2017,05,27,18,11,25.40
2017,05,27,18,12,25.40
2017,05,27,18,13,25.40
2017,05,27,18,14,25.40
2017,05,27,18,15,25.30
2017,05,27,18,16,25.20
2017,05,27,18,17,25.20
2017,05,27,18,18,25.20
2017,05,27,18,19,25.10
2017,05,27,18,20,25.10
2017,05,27,18,21,25.20
2017,05,27,18,22,25.20
2017,05,27,18,23,25.30
2017,05,27,18,24,25.30
2017,05,27,18,25,25.30
2017,05,27,18,26,25.30
2017,05,27,18,27,25.30
2017,05,27,18,28,25.20
2017,05,27,18,29,25.20
2017,05,27,18,30,25.20
2017,05,27,18,31,25.10
2017,05,27,18,32,25.10
2017,05,27,18,33,25.10
2017,05,27,18,34,25.20
2017,05,27,18,35,25.20
2017,05,27,18,36,25.20
2017,05,27,18,37,25.20
2017,05,27,18,38,25.20
2017,05,27,18,39,25.30
2017,05,27,18,40,25.30
2017,05,27,18,41,25.30
2017,05,27,18,42,25.30
2017,05,27,18,43,25.40
2017,05,27,18,44,25.40
2017,05,27,18,45,25.40
2017,05,27,18,46,25.50
2017,05,27,18,47,25.60
2017,05,27,18,48,25.60
2017,05,27,18,49,25.60
2017,05,27,18,50,25.70
2017,05,27,18,51,25.70
2017,05,27,18,52,25.70
2017,05,27,18,53,25.70
2017,05,27,18,54,25.70
2017,05,27,18,55,25.70
2017,05,27,18,56,25.80
2017,05,27,18,57,25.80
2017,05,27,18,58,25.70
2017,05,27,18,59,25.70
2017,05,27,19,00,25.60
2017,05,27,19,01,25.60
2017,05,27,19,02,25.50
2017,05,27,19,03,25.40
2017,05,27,19,04,25.30
2017,05,27,19,05,25.20
2017,05,27,19,06,25.00
2017,05,27,19,07,24.90
2017,05,27,19,08,24.90
2017,05,27,19,09,24.80
2017,05,27,19,10,24.80
2017,05,27,19,11,24.80
2017,05,27,19,12,24.80
2017,05,27,19,13,24.80
2017,05,27,19,14,24.80
2017,05,27,19,15,24.80
2017,05,27,19,16,24.80
2017,05,27,19,17,24.80
2017,05,27,19,18,24.80
2017,05,27,19,19,24.80
